KB6VSE Weather Reports


Display with metric or nautical units.
time (UTC)temp
F
wind
direction
speed
MPH
gust
MPH
rain 1hr
in
rain 24hr
in
rain mn
in
humidity
%
barometer
mb
20260503210042 62 0 0.0 0.0 0.00 0.00 0.00 75 1013.3
20260503204553 62 0 0.0 0.0 0.00 0.00 0.00 75 1013.3
20260503203047 61 0 0.0 1.0 0.00 0.00 0.00 78 1013.1
20260503201547 60 0 0.0 0.0 0.00 0.00 0.00 79 1013.2
20260503200046 61 0 0.0 0.0 0.00 0.00 0.00 80 1013.2
20260503194548 60 0 0.0 1.0 0.00 0.00 0.00 76 1013.1
20260503193049 61 0 0.0 1.0 0.00 0.00 0.00 76 1013.2
20260503191539 60 0 0.0 0.0 0.00 0.00 0.00 79 1013.1
20260503190047 59 0 0.0 0.0 0.00 0.00 0.00 79 1013.2
20260503184548 59 0 0.0 0.0 0.00 0.00 0.00 78 1013.2
20260503183045 58 0 0.0 0.0 0.00 0.00 0.00 80 1013.4
20260503181618 57 0 0.0 0.0 0.00 0.00 0.00 83 1013.4
20260503180104 56 0 0.0 0.0 0.00 0.00 0.00 83 1013.4
20260503174554 56 0 0.0 0.0 0.00 0.00 0.00 83 1013.2
20260503173102 55 0 0.0 0.0 0.00 0.00 0.00 86 1013.3
20260503171545 55 0 0.0 0.0 0.00 0.00 0.00 85 1013.2
20260503081540 51 0 0.0 0.0 0.00 0.00 0.00 88 1012.5
20260503071554 51 0 0.0 0.0 0.00 0.00 0.00 87 1013.0
20260503060111 53 0 0.0 0.0 0.00 0.00 0.00 84 1013.3
20260503054546 54 0 0.0 0.0 0.00 0.00 0.00 83 1013.2
20260503053047 54 0 0.0 0.0 0.00 0.00 0.00 82 1013.2
20260503051542 55 0 0.0 0.0 0.00 0.00 0.00 81 1013.1
20260503050044 55 0 0.0 0.0 0.00 0.00 0.00 81 1013.0
20260503044611 56 0 0.0 0.0 0.00 0.00 0.00 80 1012.8
20260503043045 57 0 0.0 0.0 0.00 0.00 0.00 79 1012.8
20260503041550 57 0 0.0 0.0 0.00 0.00 0.00 78 1012.5
20260503040045 58 0 0.0 0.0 0.00 0.00 0.00 76 1012.4
20260503034548 59 0 0.0 0.0 0.00 0.00 0.00 75 1012.2
20260503033047 60 0 0.0 0.0 0.00 0.00 0.00 72 1012.0
20260503031545 61 0 0.0 0.0 0.00 0.00 0.00 70 1011.8
20260503030047 62 0 0.0 0.0 0.00 0.00 0.00 68 1011.5
20260503024548 63 0 0.0 0.0 0.00 0.00 0.00 68 1011.3
20260503023047 64 0 0.0 0.0 0.00 0.00 0.00 64 1011.1
20260503021551 65 0 0.0 0.0 0.00 0.00 0.00 62 1011.0
20260503020046 66 0 0.0 0.0 0.00 0.00 0.00 61 1011.0
20260503014552 66 0 0.0 0.0 0.00 0.00 0.00 59 1010.9
20260503013052 66 0 0.0 0.0 0.00 0.00 0.00 57 1010.9
20260503011549 67 0 0.0 0.0 0.00 0.00 0.00 54 1011.1
20260503010044 68 0 0.0 0.0 0.00 0.00 0.00 53 1011.0
20260503004606 69 0 0.0 0.0 0.00 0.00 0.00 51 1011.2
20260503003050 69 0 0.0 0.0 0.00 0.00 0.00 53 1011.2
20260503001551 70 0 0.0 0.0 0.00 0.00 0.00 58 1011.2
20260503000052 69 0 0.0 0.0 0.00 0.00 0.00 57 1011.2
20260502234554 70 0 0.0 0.0 0.00 0.00 0.00 57 1011.1
20260502233044 70 0 0.0 0.0 0.00 0.00 0.00 60 1011.0
20260502231548 70 0 0.0 1.0 0.00 0.00 0.00 56 1011.1
20260502230049 70 0 0.0 1.0 0.00 0.00 0.00 61 1011.2
20260502224549 71 0 0.0 0.0 0.00 0.00 0.00 62 1011.3
20260502223058 71 0 0.0 0.0 0.00 0.00 0.00 64 1011.3
20260502221546 72 0 0.0 0.0 0.00 0.00 0.00 62 1011.2
20260502220050 72 0 0.0 0.0 0.00 0.00 0.00 64 1011.1
20260502214608 71 0 0.0 0.0 0.00 0.00 0.00 61 1011.3
20260502213105 71 0 0.0 0.0 0.00 0.00 0.00 62 1011.4
20260502211550 70 0 0.0 0.0 0.00 0.00 0.00 63 1011.5